IRIDIUM 62 [P]

Last updated on Fri Oct 26 2018 00:08:16 GMT+0000 (Coordinated Universal Time)

1 25285U 98021A 18298.43394891 .03285639 -84913-6 13440-2 0 9993 2 25285 86.4175 16.6356 0398509 346.4120 12.6640 15.45916993 76101

Satellite not in orbit